Regional Weather Roundup
Issued by NWS

Home | Current Version | Previous Version | Text Only | Print | Product List | Glossary On
Versions: 1 2 3 4 5 6 7 8 9 10 11 12 13 14 15 16 17 18 19 20 21 22 23 24 25 26 27 28 29 30 31 32 33 34 35 36 37 38 39 40 41 42 43 44 45 46 47 48 49 50
000
ASUS43 KDMX 180201
RWRIA

WEATHER ROUNDUP FOR IOWA
NATIONAL WEATHER SERVICE DES MOINES IA
800 PM CST TUE JAN 17 2017

NOTE: "FAIR" INDICATES FEW OR NO CLOUDS BELOW 12,000 FEET WITH NO
SIGNIFICANT WEATHER AND/OR OBSTRUCTIONS TO VISIBILITY.

* - THESE STATIONS ARE NOT NWS STATIONS...THUS NOT UNDER NWS
QUALITY CONTROL.  THEY ALSO DO NOT REPORT WEATHER SUCH
AS PRECIPITATION OR FOG.

IAZ001>003-012>014-020>022-031>034-043>046-180300-
   NORTHWEST IOWA

CITY           SKY/WX    TMP DP  RH WIND       PRES   REMARKS
CARROLL *      CLOUDY    30  30 100 SW10G16   30.07F WCI  21
CHEROKEE *     CLEAR     26  26 100 S5        30.05S FOG     WCI  20
DENISON *      CLOUDY    27  27 100 S5        30.05F FOG     WCI  21
LE MARS *      CLOUDY    30  28  93 S8        30.05S WCI  23
ORANGE CITY *  CLOUDY    27  27 100 S6        30.02F WCI  20
SHELDON *      CLOUDY    28  28 100 S8        30.00F WCI  20
SIOUX CITY     CLOUDY    26  24  92 SE6       30.06S WCI  19
SPENCER        CLOUDY    26  25  96 SW7       30.02F WCI  18
STORM LAKE *   FOG       27  27 100 SW15      30.04S VSB 1/2 WCI  15
$$

IAZ055>058-069>071-079>083-090>094-180300-
   SOUTHWEST IOWA

CITY           SKY/WX    TMP DP  RH WIND       PRES   REMARKS
ATLANTIC *     CLOUDY    30  30 100 SW7       30.10F FOG     WCI  23
AUDUBON *      CLOUDY    28  27  93 SW5       30.10S WCI  23
CLARINDA *     CLEAR     30  30 100 CALM      30.14S
COUNCIL BLFS * CLOUDY    27  27 100 S6        30.08F WCI  20
CRESTON *      CLOUDY    32  32 100 W10       30.11S WCI  24
HARLAN  *      CLOUDY    30  30 100 SW6       30.12F FOG     WCI  24
LAMONI         CLOUDY    33  31  92 W5        30.11S WCI  29
RED OAK *      CLEAR     30  30 100 CALM      30.11F
SHENANDOAH *   CLEAR     30  28  93 CALM      30.13S
$$

IAZ047>049-059>061-072>074-084-180300-
   CENTRAL IOWA

CITY           SKY/WX    TMP DP  RH WIND       PRES   REMARKS
AMES           CLOUDY    31  31 100 W10       30.09S FOG     WCI  22
ANKENY *       CLOUDY    32  32 100 W8        30.11S FOG     WCI  25
BOONE *        CLOUDY    32  32 100 W10       30.07S FOG     WCI  24
CHARITON *     CLOUDY    32  32 100 W12G17    30.11R WCI  23
DES MOINES     CLOUDY    33  32  96 W10       30.10S FOG     WCI  25
GRINNELL*      CLOUDY    33  32  97 W12       30.08S FOG     WCI  24
KNOXVILLE *    CLOUDY    34  32  93 W10       30.09S FOG     WCI  26
MARSHALLTOWN   CLOUDY    33  32  96 W7        30.06S WCI  27
NEWTON *       CLOUDY    34  32  93 W7        30.08S FOG     WCI  28
PELLA *        CLOUDY    34  33  96 W7        30.11S FOG     WCI  28
PERRY *        CLOUDY    32  32 100 SW9       30.09S WCI  25
$$

IAZ004>006-015-016-023>025-035-036-180300-
   NORTH CENTRAL IOWA

CITY           SKY/WX    TMP DP  RH WIND       PRES   REMARKS
ALGONA *       CLOUDY    30  30 100 SW14      30.03S FOG     WCI  20
CLARION *      CLOUDY    30  30 100 W8        30.05F WCI  23
ESTHERVILLE    CLEAR     27  26  96 SW7       30.01S WCI  19
FORT DODGE *   CLOUDY    30  28  93 MISG      30.07S
MASON CITY     FOG       30  29  96 W9        30.04S VSB 1/4 WCI  22
FOREST CITY *  CLOUDY    30  30 100 W3        30.03S
WEBSTER CITY * CLOUDY    32  32 100 SW12      30.05S FOG     WCI  23
IOWA FALLS *   FOG       33  32  98 W7        30.07R VSB 1/4 WCI  26
$$

IAZ007>011-017>019-026>030-037>042-050>054-066-180300-
   NORTHEAST IOWA

CITY           SKY/WX    TMP DP  RH WIND       PRES   REMARKS
CEDAR RAPIDS   CLOUDY    32  32 100 W12       30.06R FOG     WCI  23
CHARLES CITY * FOG       32  32 100 W8        30.03S VSB 1/4 WCI  25
DECORAH *      CLOUDY    34  34 100 VRB6      29.99S FOG     WCI  29
DUBUQUE        CLOUDY    33  32  96 W9        30.01R FOG     WCI  25
MONTICELLO *   CLOUDY    34  32  93 W10       30.04R FOG     WCI  26
OELWEIN *      CLOUDY    32  32 100 NW10      30.03F FOG     WCI  24
WATERLOO       CLOUDY    33  31  92 W8        30.05S WCI  26
$$

IAZ064-065-067-068-078-180300-
   EAST CENTRAL IOWA

CITY           SKY/WX    TMP DP  RH WIND       PRES   REMARKS
DAVENPORT      CLOUDY    33  32  96 W13       30.05R FOG     WCI  24
IOWA CITY      CLOUDY    35  33  92 W10       30.10R FOG     WCI  27
MUSCATINE *    CLOUDY    36  32  87 W9        30.09S WCI  29
QUAD CITIES    CLOUDY    35  32  88 W15       30.05R FOG     WCI  25
$$

IAZ062-063-075>077-085>089-095>099-180300-
   SOUTHEAST IOWA

CITY           SKY/WX    TMP DP  RH WIND       PRES   REMARKS
BURLINGTON     CLOUDY    36  35  96 W7        30.09R FOG     WCI  30
FAIRFIELD *    CLOUDY    36  34  93 W9        30.09S FOG     WCI  29
FORT MADISON * CLOUDY    37  36  93 W8        30.10S WCI  31
KEOKUK *       CLOUDY    37  36  93 W8        30.10S WCI  31
OSKALOOSA *    CLOUDY    33  33  98 W10       30.09S FOG     WCI  25
OTTUMWA        CLOUDY    35  33  92 W9        30.08S FOG     WCI  28
WASHINGTON *   CLOUDY    34  34 100 W9        30.10S FOG     WCI  26
$$

ABBREVIATIONS USED IN REMARKS
   TC - TEMPERATURES IN CELSIUS
  WCI - WIND CHILL INDEX
   HX - HEAT INDEX
  VSB - VISIBILITY
$$




USA.gov is the U.S. government's official web portal to all federal, state and local government web resources and services.